TIANWANG 1A (TW-1A)
1 40928U 15051D   19306.89556803  .00003423  00000-0  83641-4 0  9996
2 40928  97.1333 335.1287 0009208 299.9351 183.6830 15.41458681230307
LAPAN A2
1 40931U 15052B   19305.11046749  .00000638  00000-0  00000+0 0  9996
2 40931   6.0120 170.8749 0010536 276.8949  83.0186 14.76617828221319
LQSAT
1 40958U 15057A   19306.84181919 +.00000018 +00000-0 +10387-4 0  9996
2 40958 097.8847 012.2313 0018763 157.2743 202.9300 14.73094550219003
CHUBUSAT 2
1 41338U 16012B   19306.82430664 +.00000355 +00000-0 +20928-4 0  9999
2 41338 031.0043 353.2473 0013814 021.3375 338.7834 15.00202978203529
CHUBUSAT 3
1 41339U 16012C   19306.84443150  .00000376  00000-0  22457-4 0  9998
2 41339  31.0117 351.0339 0013441  28.2084 331.9283 15.00374707203521
OUFTI-1
1 41458U 16025C   19306.79605217  .00001700  00000-0  90200-4 0  9995
2 41458  98.1007  40.6171 0164246 255.8670 102.4257 15.06139049193208
E-STAR-2
1 41459U 16025D   19306.84596664  .00001596  00000-0  85622-4 0  9992
2 41459  98.1000  40.2472 0165322 257.1807 101.0891 15.05758113193189
AAUSAT 4
1 41460U 16025E   19306.84504795  .00002291  00000-0  11788-3 0  9992
2 41460  98.0947  41.8490 0155317 248.4590 109.9981 15.07765241193338
NUSAT 1
1 41557U 16033B   19306.84111947 +.00001368 +00000-0 +53515-4 0  9990
2 41557 097.4140 033.5343 0014096 166.7554 193.4058 15.27496613191021
BEESAT 4
1 41619U 16040W   19306.87513418 +.00001445 +00000-0 +63573-4 0  9990
2 41619 097.3521 006.4466 0009620 259.4391 100.5762 15.23425773174749
PRATHAM
1 41783U 16059A   19306.72786003 +.00000052 +00000-0 +19367-4 0  9993
2 41783 098.0512 003.1670 0032521 314.6119 045.2431 14.63017772165587
ALSAT 1N
1 41789U 16059G   19306.73613257  .00000118  00000-0  31302-4 0  9996
2 41789  98.0544   5.4722 0027165 303.3927  56.4670 14.64272699165706
NAYIF 1
1 42017U 17008BX  19306.84051571 +.00001588 +00000-0 +64834-4 0  9991
2 42017 097.3891 012.4373 0007504 055.5326 304.6621 15.25855490150838
MAX VALIER SAT
1 42778U 17036P   19306.79528690 +.00000999 +00000-0 +46373-4 0  9994
2 42778 097.3385 001.3332 0014030 102.0836 258.1973 15.22223753131096
